Regional Weather Roundup
Issued by NWS

Home | Current Version | Previous Version | Text Only | Print | Product List | Glossary Off
Versions: 1 2 3 4 5 6 7 8 9 10 11 12 13 14 15 16 17 18 19 20 21 22 23 24 25 26 27 28 29 30 31 32 33 34 35 36 37 38 39 40 41 42 43 44 45 46 47 48 49 50

000
ASUS43 KDMX 050507
RWRIA

WEATHER ROUNDUP FOR IOWA
NATIONAL WEATHER SERVICE DES MOINES IA
1200 AM CDT SAT SEP 05 2015

NOTE: "FAIR" INDICATES FEW OR NO CLOUDS BELOW 12,000 FEET WITH NO
SIGNIFICANT WEATHER AND/OR OBSTRUCTIONS TO VISIBILITY.

* - THESE STATIONS ARE NOT NWS STATIONS...THUS NOT UNDER NWS
QUALITY CONTROL.  THEY ALSO DO NOT REPORT WEATHER SUCH
AS PRECIPITATION OR FOG.

IAZ001>003-012>014-020>022-031>034-043>046-050600-
   NORTHWEST IOWA

CITY           SKY/WX    TMP DP  RH WIND       PRES   REMARKS
CARROLL *      CLEAR     73  73 100 SE7       29.94F
CHEROKEE *     CLEAR     75  70  83 S12       29.91S
DENISON *      CLEAR     75  70  83 SE12      29.92S
LE MARS *      CLEAR     77  70  78 SE12G18   29.89S
ORANGE CITY *  CLEAR     75  72  88 S10       29.90S
SHELDON *      CLOUDY    75  70  83 SE12G18   29.89S
SIOUX CITY     CLEAR     75  69  81 SE10      29.88R
SPENCER        CLEAR     77  69  76 S13       29.93R HAZE
STORM LAKE *   CLEAR     73  70  88 SE8G15    29.95S
$$

IAZ055>058-069>071-079>083-090>094-050600-
   SOUTHWEST IOWA

CITY           SKY/WX    TMP DP  RH WIND       PRES   REMARKS
ATLANTIC *     CLEAR     75  70  83 S6        29.96R
AUDUBON *      CLEAR     72  68  88 CALM      29.97S
CLARINDA *     CLEAR     72  70  94 S5        29.97S
COUNCIL BLFS * CLEAR     75  68  78 S12       29.94R
CRESTON *      CLEAR     73  70  88 S8        29.99F
LAMONI         MOCLDY    77  69  76 S6        29.99S
RED OAK *      CLEAR     73  70  88 S6        29.95R
SHENANDOAH *   CLEAR     77  70  78 S12       29.95R
$$

IAZ047>049-059>061-072>074-084-050600-
   CENTRAL IOWA

CITY           SKY/WX    TMP DP  RH WIND       PRES   REMARKS
AMES           CLOUDY    75  72  90 SE5       29.98R
ANKENY *       CLEAR     77  73  88 SE5       29.97S
CHARITON *     CLOUDY    75  72  88 SE5       30.00R
DES MOINES     CLOUDY    79  70  74 S8        29.96F HX  82
GRINNELL*      PTCLDY    75  70  83 SE5       30.01S
KNOXVILLE *    PTCLDY    75  70  83 SE6       29.98S
MARSHALLTOWN   CLOUDY    76  72  87 SE5       29.99R
PELLA *        PTCLDY    73  73 100 SE5       30.00S
PERRY *          N/A     75  72  88 SE3       29.97R
$$

IAZ004>006-015-016-023>025-035-036-050600-
   NORTH CENTRAL IOWA

CITY           SKY/WX    TMP DP  RH WIND       PRES   REMARKS
ALGONA *       PTCLDY    77  72  83 SE9       29.96S
CLARION *      CLEAR     75  72  88 SE8       29.98R
ESTHERVILLE    PTCLDY    75  71  87 S10       29.94S
FORT DODGE *   MOCLDY    75  70  83 E7        29.97S
MASON CITY     MOCLDY    76  73  91 SE6       29.99F
FOREST CITY *  CLEAR     73  72  94 SE7       29.97F
IOWA FALLS *     N/A     75  72  88 SE3       30.00R
$$

IAZ007>011-017>019-026>030-037>042-050>054-066-050600-
   NORTHEAST IOWA

CITY           SKY/WX    TMP DP  RH WIND       PRES   REMARKS
CEDAR RAPIDS   MOCLDY    75  73  93 E3        30.01R
CHARLES CITY * MOCLDY    75  75 100 SE6       30.00S
CLINTON *      CLEAR     75  72  88 S5        30.03S
DECORAH *      LGT RAIN  73  72  94 S5        30.01S
DUBUQUE        PTCLDY    76  70  82 CALM      30.04R
MONTICELLO *   CLEAR     73  72  94 CALM      30.02R
OELWEIN *      CLOUDY    75  72  88 SE5       30.02S
WATERLOO       CLOUDY    77  73  87 CALM      29.98S
$$

IAZ064-065-067-068-078-050600-
   EAST CENTRAL IOWA

CITY           SKY/WX    TMP DP  RH WIND       PRES   REMARKS
DAVENPORT      CLEAR     74  70  87 S6        30.02S
IOWA CITY      PTCLDY    76  72  87 CALM      30.01R
MT. PLEASANT * CLEAR     75  68  78 CALM      30.01R
MUSCATINE *    CLEAR     73  70  88 CALM      30.01R
QUAD CITIES    CLEAR     76  69  79 CALM      30.01S
$$

IAZ062-063-075>077-085>089-095>099-050600-
   SOUTHEAST IOWA

CITY           SKY/WX    TMP DP  RH WIND       PRES   REMARKS
BURLINGTON     CLEAR     76  71  85 S3        30.01R
FAIRFIELD *    CLEAR     72  68  88 SE3       30.01R
FORT MADISON * CLEAR     75  70  83 S7        30.03R
KEOKUK *       CLEAR     77  70  78 SE3       30.01R
OSKALOOSA *      N/A     72  68  88 S5        30.01R
CENTERVILLE *  CLEAR     72  68  88 SE5       30.02R
OTTUMWA        CLEAR     75  69  81 S7        29.99R
WASHINGTON *     N/A    N/A N/A N/A MISG        N/A
$$

ABBREVIATIONS USED IN REMARKS
   TC - TEMPERATURES IN CELSIUS
  WCI - WIND CHILL INDEX
   HX - HEAT INDEX
  VSB - VISIBILITY
$$




USA.gov is the U.S. government's official web portal to all federal, state and local government web resources and services.